Location: Gwatt
(46.7204°N, 7.6223°E)
Time: 11:20:58
(UTC+00:00)

Cosmos 1092 Rocket - Visible Passes

Search period start: 20 January 2021 00:00
Search period end: 30 January 2021 00:00
Orbit: 953 x 996 km, 82.9° (Epoch: 19 January)

Date Brightness Start Highest point End Pass type
(mag) Time Alt. Az. Time Alt. Az. Time Alt. Az.
20 Jan 4.7 05:06:54 10° N 05:12:56 54° ENE 05:18:57 10° SSE visible
20 Jan 5.3 16:57:18 10° ESE 17:01:00 17° E 17:04:42 10° NE visible
20 Jan 3.9 18:39:19 10° S 18:45:32 83° W 18:51:44 10° N visible
20 Jan 6.5 20:28:27 10° W 20:31:55 15° WNW 20:35:23 10° NNW visible
21 Jan 6.5 03:48:02 10° NNE 03:51:53 17° ENE 03:55:42 10° E visible
21 Jan 3.9 05:31:58 10° N 05:38:09 89° WSW 05:44:19 10° S visible
21 Jan 4.7 17:20:32 10° SE 17:25:43 29° E 17:30:52 10° NNE visible
21 Jan 4.8 19:04:48 10° SSW 19:10:47 49° WNW 19:16:45 10° N visible
22 Jan 5.8 04:12:19 10° N 04:17:31 28° ENE 04:22:43 10° SE visible
22 Jan 4.1 05:57:15 10° NNW 06:03:11 52° W 06:09:08 10° SSW visible
22 Jan 4.1 17:44:40 10° SSE 17:50:35 50° E 17:56:29 10° NNE visible
22 Jan 5.7 19:30:53 10° SW 19:36:12 29° WNW 19:41:31 10° N visible
23 Jan 4.9 04:37:02 10° N 04:42:57 47° ENE 04:48:52 10° SSE visible
23 Jan 4.7 06:22:50 10° NNW 06:28:04 30° W 06:33:19 10° SW visible
23 Jan 3.9 18:09:25 10° S 18:15:37 85° E 18:21:48 10° N visible
23 Jan 6.4 19:57:48 10° WSW 20:01:48 18° WNW 20:05:50 10° NNW visible
24 Jan 6.6 03:18:33 10° NNE 03:21:47 14° ENE 03:25:00 10° E visible
24 Jan 4.0 05:02:02 10° N 05:08:13 80° E 05:14:24 10° SSE visible
24 Jan 4.9 16:51:04 10° SE 16:55:54 25° E 17:00:43 10° NNE visible
24 Jan 4.5 18:34:44 10° SSW 18:40:48 57° WNW 18:46:53 10° N visible
24 Jan 6.9 20:27:25 10° WNW 20:27:39 10° NW 20:27:52 10° NW visible
25 Jan 6.0 03:42:34 10° NNE 03:47:28 24° ENE 03:52:22 10° ESE visible
25 Jan 3.9 05:27:15 10° NNW 05:33:18 61° W 05:39:22 10° S visible
25 Jan 4.3 17:14:58 10° SSE 17:20:43 42° E 17:26:27 10° NNE visible
25 Jan 5.5 19:00:39 10° SW 19:06:10 34° WNW 19:11:43 10° N visible
26 Jan 5.2 04:07:12 10° N 04:12:58 40° ENE 04:18:43 10° SE visible
26 Jan 4.5 05:52:45 10° NNW 05:58:14 35° W 06:03:45 10° SSW visible
26 Jan 3.9 17:39:34 10° S 17:45:42 73° E 17:51:51 10° NNE visible
26 Jan 6.3 19:27:16 10° WSW 19:31:44 20° WNW 19:36:13 10° NNW visible
27 Jan 6.7 02:49:15 10° NE 02:51:39 12° ENE 02:54:04 10° E visible
27 Jan 4.2 04:32:07 10° N 04:38:16 68° E 04:44:26 10° SSE visible
27 Jan 5.1 06:18:38 10° NW 06:23:01 21° W 06:27:24 10° SW visible
27 Jan 4.3 18:04:43 10° SSW 18:10:51 67° W 18:16:59 10° N visible
27 Jan 6.8 19:55:15 10° W 19:57:30 12° WNW 19:59:44 10° NW visible
28 Jan 6.2 03:12:52 10° NNE 03:17:25 21° ENE 03:21:57 10° ESE visible
28 Jan 3.8 04:57:17 10° NNW 05:03:25 72° W 05:09:34 10° S visible
28 Jan 5.3 18:30:27 10° SW 18:36:10 39° WNW 18:41:54 10° N visible
29 Jan 5.4 03:37:22 10° N 03:42:57 35° ENE 03:48:32 10° SE visible
29 Jan 4.3 05:22:41 10° NNW 05:28:24 41° W 05:34:08 10° SSW visible
29 Jan 4.0 17:09:45 10° S 17:15:48 62° E 17:21:52 10° NNE visible
29 Jan 6.1 18:56:50 10° WSW 19:01:40 24° WNW 19:06:31 10° NNW visible
